Weather in Kieta

Papua New Guinea     6°19′08″S   155°43′51″E
temp.,
°C
wind,
m/s
gust,
m/s
humid.,
%
clouds,
%
prec.,
mm/h
press.,
hPa
HPBL,
m
29 june, wed
wed2901:00+27sse347642 0.0 1009530
04:00+26sse337758 0.1 1009490
07:00+27se3476100 0.0 1010697
10:00+28se457241 0.1 1010640
13:00+28ese557091 0.0 1008714
16:00+27ese567699 0.4 1008562
19:00+27se567927 2.6 1010438
22:00+27se467714 5.8 1010545
30 june, thu
thu3001:00+26se468169 4.3 1009428
04:00+27se567841 6.7 1009700
07:00+27se677821 1.3 1011778
10:00+28se67767 2.0 1010790
13:00+28ese677619 2.5 1009740
16:00+27se677811 5.5 1008693
19:00+27se677927 3.4 1009737
22:00+27se678080 6.0 1011723
1 july, fri
fri101:00+28ese577354 2.1 1009995
04:00+27se567924 4.5 1009688
07:00+27ese568229 3.8 1011632
10:00+27se457841 7.2 1011636
13:00+28ese44749 0.9 1008703
16:00+27ese33781 3.2 1008238
19:00+26se34820 2.4 1009323
22:00+27se448116 4.8 1010427
2 july, sat
sat201:00+26se448273 1.8 1009360
04:00+27ese56795 5.4 1009507
07:00+27se45815 2.9 1010438
10:00+27ese447714 3.9 1010656
13:00+28se44737 2.0 1008726
16:00+28se44763 2.1 1007607
19:00+27se457811 0.4 1008666
22:00+27se44808 1.3 1009488
3 july, sun
sun301:00+26se348014 2.7 1008471
04:00+26se34802 5.8 1007302
07:00+26se34795 5.1 1009204
10:00+27se44749 7.1 1009529
13:00+27ese457516 1.0 1006475
16:00+28se557219 1.8 1006678
19:00+27se45746 0.8 1008708
22:00+27se457710 2.4 1008525